| Date | Temp | Humidity | Rainfall | Dew Point | Wind Direction | Wind Speed | Wind Pressure | Condition | Visibility |
|---|---|---|---|---|---|---|---|---|---|
| 2025-05-04 20:59:24 | 29 | 82 | 0.00 | 25 | 030 | 3.8 | 1009 | Partly Cloudy (Night) | 10 km |
| 2025-05-04 20:02:15 | 29 | 79 | 0.00 | 25 | 010 | 5.7 | 1008 | Partly Cloudy (Night) | 10 KM |
| 2025-05-04 19:04:37 | 29 | 77 | 0.00 | 25 | 360 | 5.7 | 1007 | Partly Cloudy (Night) | 10 Km |
| 2025-05-04 17:00:26 | 31 | 68 | 0.00 | 24 | 320 | 15.2 | 1007 | Distant showers | 10 km |
| 2025-05-04 16:00:17 | 31 | 65 | 0.00 | 24 | 320 | 19.0 | 1007 | Distant showers | 10 Km |
| 2025-05-04 15:04:10 | 32 | 64 | 0.00 | 24 | 330 | 24.7 | 1007 | Distant showers | 10 Km |
| 2025-05-04 14:03:29 | 33 | 59 | 0.00 | 23 | 340 | 20.9 | 1007 | Partly Cloudy (Day) | 10 km |
| 2025-05-04 12:56:42 | 33 | 58 | 0.0 | 23 | 340 | 13.3 | 1008 | Partly Cloudy (Day) | 20 km |
| 2025-05-04 11:56:46 | 33 | 60 | 0.0 | 24 | 360 | 9.5 | 1008 | Partly Cloudy (Day) | 20 km |
| 2025-05-04 11:00:38 | 33 | 55 | 0.0 | 22 | 240 | 7.6 | 1009 | Partly Cloudy (Day) | 20 km |
| 2025-05-04 10:00:34 | 31 | 61 | 23 | 200 | 7.6 | 1009 | Fair | 20 KM | |
| 2025-05-04 08:59:08 | 30 | 72 | 24 | 190 | 9.5 | 1009 | Fair | 20 KM | |
| 2025-05-04 07:57:58 | 27 | 83 | 0 | 24 | 170 | 5.7 | 1009 | Fair | 20 KM |
| 2025-05-04 07:01:10 | 25 | 92 | 0 | 24 | 170 | 5.7 | 1009 | Partly Cloudy (Day) | 20 KM |
| 2025-05-04 06:01:55 | 25 | 94 | 0 | 24 | 200 | 7.6 | 1008 | Partly Cloudy (Day) | 10 KM |
| 2025-05-04 06:01:12 | 25 | 94 | 0 | 24 | 200 | 7.6 | 1008 | Partly Cloudy (Day) | 10 KM |
| 2025-05-04 05:00:10 | 25 | 93 | 0 | 24 | 170 | 5.7 | 1008 | Partly Cloudy (Night) | 10 km |
| 2025-05-04 04:00:49 | 25 | 91 | 0 | 24 | 190 | 7.6 | 1008 | Partly Cloudy (Night) | 10 km |
| 2025-05-04 03:00:34 | 25 | 92 | 0 | 24 | 220 | 5.7 | 1008 | Partly Cloudy (Night) | 10 KM |
| 2025-05-04 01:57:14 | 26 | 91 | 24 | 190 | 3.8 | 1009 | Partly Cloudy (Night) | 10 KM | |
| 2025-05-04 00:58:49 | 26 | 87 | 24 | 180 | 3.8 | 1009 | Partly Cloudy (Night) | 10 KM | |
| 2025-05-03 23:58:35 | 27 | 85 | 24 | 170 | 1.9 | 1010 | Partly Cloudy (Night) | 10 KM | |
| 2025-05-03 23:02:44 | 28 | 77 | 23 | 150 | 5.7 | 1010 | Partly Cloudy (Night) | 10 KM | |
| 2025-05-03 20:57:12 | 28 | 79 | 24 | 110 | 5.7 | 1010 | Partly Cloudy (Night) | 10 KM | |
| 2025-05-03 19:58:48 | 29 | 73 | 23 | 020 | 1.9 | 1009 | Partly Cloudy (Night) | 10 KM |